Location: *
(45.9500°N, 9.0833°E)
Time: 21:35:10
(UTC+00:00)

USA 234 - Pass Details

Date: 03 March 2021
Orbit: 1102 x 1105 km, 123.0° (Epoch: 18 April)

Event Time Altitude Azimuth Distance (km) Brightness Sun altitude
Exits shadow 17:52:37 - 60° (ENE) 3,458 5.3 -7.7°
Reaches altitude 10° 17:54:06 10° 66° (ENE) 2,965 5.0 -7.9°
Maximum altitude 17:59:51 32° 128° (SE) 1,788 4.0 -8.9°
Drops below altitude 10° 18:05:34 10° 190° (S) 2,953 5.6 -9.9°
Sets 18:08:20 0° 200° (SSW) 3,907 6.4 -10.4°
